TimeEDT,TemperatureF,Dew PointF,Humidity,Sea Level PressureIn,VisibilityMPH,Wind Direction,Wind SpeedMPH,Gust SpeedMPH,PrecipitationIn,Events,Conditions,WindDirDegrees,DateUTC
12:54 AM,48.9,12.9,24,30.05,10.0,North,4.6,-,N/A,,Clear,350,2013-03-20 04:54:00
1:54 AM,46.0,12.9,26,30.05,10.0,North,6.9,-,N/A,,Clear,350,2013-03-20 05:54:00
2:54 AM,42.1,19.0,40,30.04,10.0,North,5.8,-,N/A,,Clear,10,2013-03-20 06:54:00
3:54 AM,42.1,17.1,37,30.04,10.0,North,6.9,-,N/A,,Clear,360,2013-03-20 07:54:00
4:54 AM,41.0,17.1,38,30.03,10.0,NNE,5.8,-,N/A,,Clear,20,2013-03-20 08:54:00
5:54 AM,39.0,19.0,45,30.04,10.0,NNE,5.8,-,N/A,,Clear,20,2013-03-20 09:54:00
6:54 AM,39.9,19.9,45,30.07,10.0,NNE,3.5,-,N/A,,Clear,20,2013-03-20 10:54:00
7:54 AM,43.0,16.0,34,30.09,10.0,NNE,4.6,-,N/A,,Partly Cloudy,30,2013-03-20 11:54:00
8:54 AM,46.0,16.0,30,30.12,10.0,NE,8.1,-,N/A,,Scattered Clouds,40,2013-03-20 12:54:00
9:54 AM,46.9,12.9,25,30.12,10.0,NE,4.6,-,N/A,,Mostly Cloudy,40,2013-03-20 13:54:00
10:54 AM,48.0,10.0,22,30.12,10.0,NNE,5.8,-,N/A,,Partly Cloudy,30,2013-03-20 14:54:00
11:54 AM,50.0,12.0,22,30.11,10.0,Calm,Calm,-,N/A,,Overcast,0,2013-03-20 15:54:00
12:54 PM,51.1,10.9,20,30.08,10.0,Calm,Calm,-,N/A,,Overcast,0,2013-03-20 16:54:00
1:54 PM,52.0,12.0,20,30.04,10.0,Calm,Calm,-,N/A,,Mostly Cloudy,0,2013-03-20 17:54:00
2:54 PM,53.1,12.0,20,29.98,10.0,Calm,Calm,-,N/A,,Overcast,0,2013-03-20 18:54:00
3:54 PM,54.0,16.0,22,29.93,10.0,West,10.4,-,N/A,,Scattered Clouds,260,2013-03-20 19:54:00
4:54 PM,55.9,17.1,22,29.89,10.0,WSW,11.5,-,N/A,,Clear,250,2013-03-20 20:54:00
5:54 PM,55.9,17.1,22,29.88,10.0,SW,13.8,19.6,N/A,,Clear,220,2013-03-20 21:54:00
6:54 PM,54.0,19.9,26,29.85,5.0,SSW,8.1,-,N/A,,Haze,200,2013-03-20 22:54:00
7:54 PM,51.1,19.9,29,29.84,10.0,South,5.8,-,N/A,,Clear,190,2013-03-20 23:54:00
8:54 PM,46.0,23.0,40,29.83,10.0,South,3.5,-,N/A,,Scattered Clouds,180,2013-03-21 00:54:00
9:54 PM,48.0,23.0,37,29.80,10.0,South,5.8,-,N/A,,Overcast,190,2013-03-21 01:54:00
10:54 PM,46.9,24.1,41,29.81,10.0,WNW,6.9,-,N/A,,Mostly Cloudy,290,2013-03-21 02:54:00
11:54 PM,42.1,24.1,49,29.80,10.0,West,4.6,-,N/A,,Partly Cloudy,260,2013-03-21 03:54:00